Flag for Germany Weather past 2 weeks in Schwedt/Oder, Brandenburg, Germany

37 °F


Feels Like: 37 °F
Forecast: 30 / 38 °F
Wind: 2 mph from North

Location: Szczecin Airport

Current Time: Nov 26, 2015 at 8:47:32 AM

Latest Report: Nov 26, 2015 at 8:00 AM

Visibility: 3 mi

Pressure: 29.80 "Hg

Humidity: 100%

Dew point: 37 °F

Location of Schwedt/OderLocation

Historic Weather in Schwedt/Oder — Graph


Schwedt/Oder temperature yesterday

Maximum temperature yesterday: 36 °F (at 8:30 PM)
Minimum temperature yesterday: 32 °F (at 5:00 AM)
Average temperature yesterday: 33 °F

Past Weeks' High & Low Weather Summary

High59 °F (Nov 11, 7:00 AM)100% (Nov 12, 10:30 PM)30.24 "Hg (Nov 12, 10:30 PM)
Low25 °F (Nov 24, 12:30 AM)66% (Nov 14, 1:30 PM)29.33 "Hg (Nov 21, 1:30 AM)
Average44 °F89%29.77 "Hg
* Reported Nov 11 7:00 AM — Nov 26 7:30 AM, Schwedt/Oder, Weather by CustomWeather, © 2015

Note: Actual official high and low records may vary slightly from our data, if they occured in-between our weather recording intervals... More about our weather records


Schwedt/Oder weather history for previous 24 hours

Time TempWeatherWind HumidityBarometerVisibility
7:30 AM
Thu, Nov 26
37 °FFog.3 mph93%29.80 "Hg3 mi
7:00 AM37 °FPassing clouds.3 mph93%29.77 "Hg4 mi
6:30 AM37 °FFog.5 mph93%29.77 "Hg3 mi
6:00 AM37 °FPassing clouds.5 mph93%29.77 "Hg4 mi
5:30 AM37 °FPassing clouds.5 mph93%29.74 "Hg4 mi
5:00 AM37 °FPassing clouds.5 mph93%29.74 "Hg4 mi
4:00 AM37 °FPassing clouds.3 mph93%29.71 "Hg4 mi
3:30 AM37 °FPassing clouds.3 mph93%29.71 "Hg4 mi
3:00 AM37 °FPassing clouds.3 mph93%29.71 "Hg4 mi
2:30 AM37 °FPartly cloudy.3 mph93%29.71 "Hg4 mi
2:00 AM36 °FPassing clouds.3 mph100%29.71 "Hg4 mi
1:30 AM36 °FPassing clouds.3 mph100%29.68 "Hg4 mi
1:00 AM36 °FFog.6 mph100%29.68 "Hg3 mi
12:00 AM36 °FFog.5 mph93%29.68 "Hg3 mi
11:30 PM
Wed, Nov 25
36 °FFog.6 mph93%29.68 "Hg3 mi
11:00 PM36 °FFog.5 mph93%29.68 "Hg3 mi
10:30 PM36 °FFog.5 mph100%29.68 "Hg3 mi
10:00 PM36 °FFog.5 mph100%29.68 "Hg2 mi
9:30 PM36 °FFog.5 mph93%29.68 "Hg2 mi
9:00 PM36 °FFog.5 mph93%29.65 "Hg2 mi
8:30 PM36 °FFog.6 mph93%29.65 "Hg2 mi
8:00 PM34 °FFog.7 mph100%29.65 "Hg2 mi
7:30 PM34 °FFog.6 mph100%29.65 "Hg2 mi
7:00 PM34 °FLight rain. Fog.8 mph100%29.65 "Hg2 mi
6:30 PM34 °FFog.8 mph100%29.65 "Hg3 mi
6:00 PM34 °FFog.8 mph100%29.65 "Hg3 mi
5:30 PM34 °FFog.8 mph100%29.65 "Hg3 mi
5:00 PM34 °FFog.9 mph100%29.65 "Hg3 mi
4:30 PM34 °FFog.8 mph100%29.65 "Hg2 mi
4:00 PM34 °FLight rain. Fog.8 mph100%29.65 "Hg2 mi
3:30 PM34 °FLight rain. Fog.9 mph93%29.65 "Hg2 mi
3:00 PM34 °FLight snow. Fog.9 mph93%29.65 "Hg2 mi
2:30 PM32 °FLight snow. Ice fog.9 mph100%29.65 "Hg3 mi
2:00 PM32 °FLight snow. Ice fog.9 mph100%29.65 "Hg3 mi
1:30 PM32 °FLight snow. Ice fog.9 mph100%29.65 "Hg3 mi
1:00 PM32 °FLight snow. Ice fog.10 mph100%29.65 "Hg3 mi
12:30 PM32 °FLight snow. Ice fog.10 mph100%29.65 "Hg3 mi
12:00 PM32 °FLight snow. Ice fog.10 mph100%29.68 "Hg3 mi
11:30 AM32 °FLight snow. Ice fog.10 mph100%29.68 "Hg2 mi
11:00 AM32 °FLight snow. Ice fog.10 mph100%29.68 "Hg1 mi
10:30 AM32 °FLight snow. Ice fog.12 mph100%29.68 "Hg2 mi
10:00 AM32 °FLight snow. Ice fog.13 mph100%29.68 "Hg2 mi
9:30 AM32 °FLight snow. Ice fog.10 mph93%29.71 "Hg2 mi
9:00 AM32 °FLight snow. Ice fog.12 mph93%29.68 "Hg2 mi
8:00 AM32 °FLight snow. Broken clouds.12 mph93%29.71 "Hg5 mi
Weather by CustomWeather, © 2015

See weather overviewHow to use our weather pages